Date,Time,Wetness (Wet Dry or Ice),Wind Speed (m/s),Temperature (C),Humidity (%),Pressure (mb),Radiation (W/m^2)
2020-06-25,03:20:00,DRY,4.60,11.77,14.3,776.00,1.2
2020-06-25,03:25:00,DRY,4.55,11.65,14.0,776.00,0.6
2020-06-25,03:30:00,DRY,4.87,11.67,14.3,776.00,1.1
2020-06-25,03:35:00,DRY,5.45,11.65,15.0,776.00,1.4
2020-06-25,03:40:00,DRY,5.37,11.67,14.3,776.00,1.3
2020-06-25,03:45:00,DRY,4.80,11.70,14.0,776.00,1.2
2020-06-25,03:50:00,DRY,5.33,11.40,15.0,776.00,1.1
2020-06-25,03:55:00,DRY,4.65,11.55,14.0,776.00,1.2
2020-06-25,04:00:00,DRY,5.00,11.63,14.0,776.00,1.3
2020-06-25,04:05:00,DRY,4.25,11.60,14.0,776.00,1.1
2020-06-25,04:10:00,DRY,5.60,11.47,15.0,776.00,1.3
2020-06-25,04:15:00,DRY,5.15,11.60,14.0,776.00,1.1
2020-06-25,04:20:00,DRY,5.77,11.60,14.0,776.00,1.2
2020-06-25,04:25:00,DRY,6.00,11.70,14.0,776.00,1.2
2020-06-25,04:30:00,DRY,5.77,11.80,14.0,776.00,1.5
2020-06-25,04:35:00,DRY,5.80,11.70,14.0,776.00,1.2
2020-06-25,04:40:00,DRY,5.33,11.60,14.0,776.00,2.3
2020-06-25,04:45:00,DRY,3.80,11.55,14.0,776.00,1.1
2020-06-25,04:50:00,DRY,4.50,11.37,15.3,776.00,1.1
2020-06-25,04:55:00,DRY,5.65,11.35,15.0,776.00,1.6
2020-06-25,05:00:00,DRY,5.27,11.13,16.0,776.00,1.2
2020-06-25,05:05:00,DRY,5.95,11.05,16.0,776.00,1.3
2020-06-25,05:10:00,DRY,6.20,10.97,16.0,776.00,1.3
2020-06-25,05:15:00,DRY,5.90,10.90,16.0,776.00,1.1
2020-06-25,05:20:00,DRY,4.93,10.93,16.0,776.00,1.2
2020-06-25,05:25:00,DRY,4.70,11.10,15.5,776.00,1.1
2020-06-25,05:30:00,DRY,5.03,11.20,15.3,776.00,1.3
2020-06-25,05:35:00,DRY,4.40,10.95,16.0,776.00,1.3
2020-06-25,05:40:00,DRY,5.20,10.90,16.0,776.00,1.4
2020-06-25,05:45:00,DRY,6.15,11.10,16.0,776.00,2.2
2020-06-25,05:50:00,DRY,5.10,11.27,15.3,776.00,1.2
2020-06-25,05:55:00,DRY,4.65,11.25,15.0,776.00,1.8
2020-06-25,06:00:00,DRY,5.43,11.37,15.0,776.00,2.4
2020-06-25,06:05:00,DRY,4.70,11.65,14.0,776.00,3.4
2020-06-25,06:10:00,DRY,4.80,11.83,13.3,776.00,4.6
2020-06-25,06:15:00,DRY,4.60,11.90,13.0,776.00,6.5
2020-06-25,06:20:00,DRY,3.57,12.17,13.0,776.00,11.2
2020-06-25,06:25:00,DRY,4.25,12.15,13.0,776.00,16.2
2020-06-25,06:30:00,DRY,5.17,11.93,13.0,776.00,29.9
2020-06-25,06:35:00,DRY,3.85,12.35,12.5,776.00,36.7
2020-06-25,06:40:00,DRY,3.83,12.43,13.0,776.00,50.5
2020-06-25,06:45:00,DRY,4.85,12.25,13.0,776.00,96.7
2020-06-25,06:50:00,DRY,5.20,12.30,14.0,776.00,139.9
2020-06-25,06:55:00,DRY,4.45,12.40,14.0,776.00,160.8
2020-06-25,07:00:00,DRY,4.37,12.53,14.0,776.00,181.1
2020-06-25,07:05:00,DRY,3.10,12.65,14.0,776.00,189.5
2020-06-25,07:10:00,DRY,3.27,12.87,13.7,776.00,222.3
2020-06-25,07:15:00,DRY,2.90,13.45,12.0,776.00,244.2
2020-06-25,07:20:00,DRY,2.40,13.47,14.0,776.00,266.1
2020-06-25,07:25:00,DRY,2.25,13.80,13.5,776.00,287.9
2020-06-25,07:30:00,DRY,1.93,14.10,12.3,776.00,310.5
2020-06-25,07:35:00,DRY,1.75,14.15,12.0,776.00,332.4
2020-06-25,07:40:00,DRY,1.87,14.50,11.7,776.00,354.8
2020-06-25,07:45:00,DRY,1.35,14.50,12.5,776.00,376.9
2020-06-25,07:50:00,DRY,1.80,14.43,13.0,776.00,398.9
2020-06-25,07:55:00,DRY,2.80,14.20,14.0,776.00,420.4
2020-06-25,08:00:00,DRY,3.13,13.87,13.3,776.00,443.1
2020-06-25,08:05:00,DRY,2.20,13.75,14.0,776.00,464.9
2020-06-25,08:10:00,DRY,2.30,14.03,14.0,776.00,487.1
2020-06-25,08:15:00,DRY,1.70,14.00,13.5,776.00,507.1
2020-06-25,08:20:00,DRY,2.70,14.13,14.0,776.00,529.0
2020-06-25,08:25:00,DRY,3.55,14.10,13.5,776.00,551.0
2020-06-25,08:30:00,DRY,3.07,13.93,13.3,776.00,571.9
2020-06-25,08:35:00,DRY,4.15,14.05,13.0,776.00,592.5
2020-06-25,08:40:00,DRY,2.27,14.07,14.3,776.00,613.5
2020-06-25,08:45:00,DRY,2.40,14.20,13.5,776.00,632.8
2020-06-25,08:50:00,DRY,2.00,13.93,14.0,776.67,653.8
2020-06-25,08:55:00,DRY,1.80,14.30,14.5,776.00,675.5
2020-06-25,09:00:00,DRY,2.53,14.10,14.0,776.33,694.4
2020-06-25,09:05:00,DRY,3.45,13.80,14.5,777.00,713.9
2020-06-25,09:10:00,DRY,2.43,14.13,14.7,776.67,732.6
2020-06-25,09:15:00,DRY,3.60,14.55,14.0,777.00,752.0
2020-06-25,09:20:00,DRY,2.73,14.57,14.3,776.33,771.6
2020-06-25,09:25:00,DRY,2.20,14.60,13.0,777.00,790.5
2020-06-25,09:30:00,DRY,2.33,14.83,15.3,777.00,808.8
2020-06-25,09:35:00,DRY,1.25,14.60,13.5,777.00,826.0
2020-06-25,09:40:00,DRY,1.57,14.93,14.7,777.00,843.3
2020-06-25,09:45:00,DRY,1.70,14.95,15.0,777.00,861.5
2020-06-25,09:50:00,DRY,2.97,15.23,15.7,777.00,879.1
2020-06-25,09:55:00,DRY,1.25,15.30,16.5,777.00,895.5
2020-06-25,10:00:00,DRY,2.67,15.47,15.7,777.00,909.6
2020-06-25,10:05:00,DRY,2.65,15.95,14.0,777.00,926.5
2020-06-25,10:10:00,DRY,2.03,15.67,15.7,777.00,941.6
2020-06-25,10:15:00,DRY,2.95,16.05,18.0,777.00,957.1
2020-06-25,10:20:00,DRY,2.13,16.23,18.7,777.00,973.1
2020-06-25,10:25:00,DRY,2.55,16.40,17.0,777.00,986.0
2020-06-25,10:30:00,DRY,1.70,16.17,19.3,777.00,1001.0
2020-06-25,10:35:00,DRY,1.35,15.80,19.5,777.00,1013.0
2020-06-25,10:40:00,DRY,2.17,16.33,22.0,777.00,1026.1
2020-06-25,10:45:00,DRY,2.20,16.60,22.0,777.00,1039.7
2020-06-25,10:50:00,DRY,2.30,16.27,21.3,777.00,1052.1
2020-06-25,10:55:00,DRY,2.55,16.35,23.0,777.00,1062.8
2020-06-25,11:00:00,DRY,1.40,15.80,23.7,777.00,1074.6
2020-06-25,11:05:00,DRY,2.25,16.45,28.0,777.00,1084.0
2020-06-25,11:10:00,DRY,2.30,15.83,31.0,777.00,1096.6
2020-06-25,11:15:00,DRY,1.15,15.80,30.5,777.00,1106.1
2020-06-25,11:20:00,DRY,1.87,15.50,31.0,777.00,1115.7
2020-06-25,11:25:00,DRY,2.30,15.70,30.5,777.00,1125.5
2020-06-25,11:30:00,DRY,2.70,15.67,30.7,777.00,1134.1
2020-06-25,11:35:00,DRY,2.05,15.55,31.0,777.00,1143.3
2020-06-25,11:40:00,DRY,1.77,15.37,30.0,777.00,1149.1
2020-06-25,11:45:00,DRY,2.00,15.35,31.5,777.00,1157.8
2020-06-25,11:50:00,DRY,2.07,15.50,31.0,777.00,1163.0
2020-06-25,11:55:00,DRY,2.45,16.15,29.5,777.00,1169.2
2020-06-25,12:00:00,DRY,2.40,15.70,29.7,777.00,1175.9
2020-06-25,12:05:00,DRY,1.95,15.15,32.5,777.00,1183.1
2020-06-25,12:10:00,DRY,2.47,16.13,30.7,777.00,1187.7
2020-06-25,12:15:00,DRY,2.90,15.50,34.0,777.00,1190.0
2020-06-25,12:20:00,DRY,2.87,16.23,31.3,777.00,1195.2
2020-06-25,12:25:00,DRY,2.10,15.50,31.0,777.00,1199.2
2020-06-25,12:30:00,DRY,2.33,16.00,30.3,777.00,1201.0
2020-06-25,12:35:00,DRY,3.10,15.65,26.5,777.00,1204.0
2020-06-25,12:40:00,DRY,2.60,15.50,31.3,777.00,1205.8
2020-06-25,12:45:00,DRY,1.40,15.50,25.5,777.00,1209.2
2020-06-25,12:50:00,DRY,3.30,15.80,34.7,777.00,1210.0
2020-06-25,12:55:00,DRY,2.70,15.55,32.5,777.00,1211.3
2020-06-25,13:00:00,DRY,2.73,15.73,34.7,777.00,1213.1
2020-06-25,13:05:00,DRY,3.40,16.25,28.0,777.00,1214.2
2020-06-25,13:10:00,DRY,3.30,15.93,30.3,777.00,1214.6
2020-06-25,13:15:00,DRY,2.00,15.80,27.5,777.00,1212.2
2020-06-25,13:20:00,DRY,2.47,16.10,28.7,777.00,1215.4
2020-06-25,13:25:00,DRY,2.60,15.55,28.5,777.00,1211.4
2020-06-25,13:30:00,DRY,3.30,15.30,32.0,777.00,1215.0
2020-06-25,13:35:00,DRY,2.90,15.60,34.0,777.00,1213.4
2020-06-25,13:40:00,DRY,2.80,15.67,31.7,777.00,1210.5
2020-06-25,13:45:00,DRY,2.15,15.20,28.5,777.00,1209.6
2020-06-25,13:50:00,DRY,2.50,15.50,27.3,777.00,1205.0
2020-06-25,13:55:00,DRY,2.75,15.35,31.5,777.00,1203.1
2020-06-25,14:00:00,DRY,2.43,15.37,32.3,777.00,1199.2
2020-06-25,14:05:00,DRY,2.50,15.50,31.5,777.00,1193.9
2020-06-25,14:10:00,DRY,3.77,16.03,28.3,777.00,1191.6
2020-06-25,14:15:00,DRY,2.70,15.55,28.0,777.00,1186.6
2020-06-25,14:20:00,DRY,2.80,15.70,26.3,777.00,1181.3
2020-06-25,14:25:00,DRY,2.75,15.95,25.5,777.00,1175.8
2020-06-25,14:30:00,DRY,2.93,15.40,27.3,777.00,1170.7
2020-06-25,14:35:00,DRY,3.30,15.65,29.0,777.00,1162.7
2020-06-25,14:40:00,DRY,2.90,15.73,25.0,777.00,1155.1
2020-06-25,14:45:00,DRY,3.50,16.05,30.0,777.00,1146.3
2020-06-25,14:50:00,DRY,3.15,15.65,32.0,777.00,1140.2
2020-06-25,14:55:00,DRY,3.30,15.40,32.0,777.00,1132.5
2020-06-25,15:00:00,DRY,4.40,15.43,31.7,777.00,1121.2
2020-06-25,15:05:00,DRY,4.35,15.00,31.5,777.00,1110.3
2020-06-25,15:10:00,DRY,3.33,15.40,31.3,777.00,1100.3
2020-06-25,15:15:00,DRY,4.45,15.30,30.5,777.00,1089.3
2020-06-25,15:20:00,DRY,4.50,15.27,30.0,777.00,1079.7
2020-06-25,15:25:00,DRY,2.60,15.30,28.5,777.00,1067.0
2020-06-25,15:30:00,DRY,2.20,15.30,27.7,777.00,1057.5
2020-06-25,15:35:00,DRY,3.05,15.70,23.0,777.00,1042.4
2020-06-25,15:40:00,DRY,2.60,15.17,30.0,777.00,1027.4
2020-06-25,15:45:00,DRY,3.00,15.20,26.5,777.00,1014.5
2020-06-25,15:50:00,DRY,4.17,14.93,23.3,777.00,1001.6
2020-06-25,15:55:00,DRY,3.95,14.60,28.0,777.00,986.3
2020-06-25,16:00:00,DRY,3.30,14.47,28.7,777.00,970.4
2020-06-25,16:05:00,DRY,4.80,14.20,28.0,777.00,956.0
2020-06-25,16:10:00,DRY,3.43,14.27,29.7,777.00,940.1
2020-06-25,16:15:00,DRY,2.25,14.65,28.0,777.00,925.5
2020-06-25,16:20:00,DRY,4.13,14.37,27.7,777.00,910.3
2020-06-25,16:25:00,DRY,3.95,13.85,31.5,777.00,893.2
2020-06-25,16:30:00,DRY,3.03,14.07,27.3,777.00,871.8
2020-06-25,16:35:00,DRY,3.00,14.55,26.0,777.00,857.7
2020-06-25,16:40:00,DRY,4.57,14.50,27.7,777.00,843.5
2020-06-25,16:45:00,DRY,3.75,14.30,30.0,777.00,824.5
2020-06-25,16:50:00,DRY,4.90,14.07,28.7,776.67,808.2
2020-06-25,16:55:00,DRY,3.95,13.75,24.0,776.50,791.2
2020-06-25,17:00:00,DRY,4.33,14.13,25.7,777.00,760.5
2020-06-25,17:05:00,DRY,3.50,14.10,27.0,777.00,701.5
2020-06-25,17:10:00,DRY,3.30,14.45,28.5,776.50,731.9
2020-06-25,17:15:00,DRY,4.00,14.00,24.0,776.50,727.8
2020-06-25,17:20:00,DRY,4.53,13.70,25.0,776.67,706.9
2020-06-25,17:25:00,DRY,4.15,13.80,23.5,777.00,684.1
2020-06-25,17:30:00,DRY,4.10,13.77,22.3,777.00,659.9
2020-06-25,17:35:00,DRY,3.45,13.95,19.0,776.50,637.8
2020-06-25,17:40:00,DRY,3.00,14.13,21.0,776.67,617.2
2020-06-25,17:45:00,DRY,4.35,13.85,19.5,777.00,585.6
2020-06-25,17:50:00,DRY,3.60,13.90,19.0,777.00,562.0
2020-06-25,17:55:00,DRY,3.70,13.90,18.0,777.00,552.7
2020-06-25,18:00:00,DRY,3.10,13.93,21.0,777.00,532.3
2020-06-25,18:05:00,DRY,4.30,14.20,18.5,777.00,509.4
2020-06-25,18:10:00,DRY,3.43,13.83,19.0,777.00,487.7
2020-06-25,18:15:00,DRY,4.80,13.90,16.5,777.00,466.2
2020-06-25,18:20:00,DRY,4.17,13.53,18.3,777.00,445.2
2020-06-25,18:25:00,DRY,3.65,13.50,19.5,777.00,422.6
2020-06-25,18:30:00,DRY,4.40,13.87,16.0,777.00,401.4
2020-06-25,18:35:00,DRY,4.65,13.80,16.5,777.00,378.8
2020-06-25,18:40:00,DRY,3.83,13.87,16.3,777.00,357.4
2020-06-25,18:45:00,DRY,2.20,13.85,17.0,777.00,335.1
2020-06-25,18:50:00,DRY,3.33,14.17,14.3,777.00,313.1
2020-06-25,18:55:00,DRY,1.60,13.90,16.0,777.00,291.6
2020-06-25,19:00:00,DRY,2.03,13.70,14.3,777.00,269.8
2020-06-25,19:05:00,DRY,2.50,13.75,16.5,777.00,249.0
2020-06-25,19:10:00,DRY,2.70,13.37,17.3,777.00,227.4
2020-06-25,19:15:00,DRY,3.15,13.20,17.5,777.00,206.8
2020-06-25,19:20:00,DRY,3.03,13.20,16.0,777.00,187.6
2020-06-25,19:25:00,DRY,3.80,13.15,16.5,777.00,167.9
2020-06-25,19:30:00,DRY,3.20,12.87,15.3,777.00,149.5
2020-06-25,19:35:00,DRY,4.20,12.70,15.0,777.00,127.7
2020-06-25,19:40:00,DRY,3.97,12.93,14.7,777.00,103.2
2020-06-25,19:45:00,DRY,4.30,12.85,16.0,777.00,79.0
2020-06-25,19:50:00,DRY,4.20,12.67,15.0,777.00,58.5
2020-06-25,19:55:00,DRY,3.25,12.70,14.0,777.00,41.0
2020-06-25,20:00:00,DRY,2.97,12.77,14.3,777.00,28.2
2020-06-25,20:05:00,DRY,4.05,12.70,14.0,777.00,17.2
2020-06-25,20:10:00,DRY,4.27,12.70,13.7,777.00,12.2
2020-06-25,20:15:00,DRY,4.10,12.45,14.0,777.00,8.5
2020-06-25,20:20:00,DRY,5.33,12.37,13.3,777.00,4.3
2020-06-25,20:25:00,DRY,5.30,12.25,13.5,777.00,3.0
2020-06-25,20:30:00,DRY,3.73,12.23,13.7,777.00,2.4
2020-06-25,20:35:00,DRY,3.80,12.30,13.0,777.00,2.3
2020-06-25,20:40:00,DRY,4.07,12.27,13.0,777.00,1.5
2020-06-25,20:45:00,DRY,4.40,12.20,13.0,777.00,1.2
2020-06-25,20:50:00,DRY,4.80,12.10,14.0,777.00,1.5
2020-06-25,20:55:00,DRY,5.30,12.15,13.0,777.00,1.5
2020-06-25,21:00:00,DRY,4.13,12.10,13.0,777.00,1.6
2020-06-25,21:05:00,DRY,4.35,11.95,13.5,777.00,1.3
2020-06-25,21:10:00,DRY,4.00,11.83,14.0,777.00,1.2
2020-06-25,21:15:00,DRY,3.85,11.75,14.5,777.00,1.3
2020-06-25,21:20:00,DRY,5.10,11.70,15.0,777.00,1.0
2020-06-25,21:25:00,DRY,5.10,11.60,15.0,777.00,1.2
2020-06-25,21:30:00,DRY,4.30,11.70,14.0,777.00,1.2
2020-06-25,21:35:00,DRY,5.25,11.85,13.0,777.00,1.1
2020-06-25,21:40:00,DRY,4.57,11.87,14.0,777.00,1.1
2020-06-25,21:45:00,DRY,3.70,11.65,14.0,777.00,1.4
2020-06-25,21:50:00,DRY,4.83,11.67,14.7,777.00,0.8
2020-06-25,21:55:00,DRY,5.30,11.60,15.0,777.00,1.1
2020-06-25,22:00:00,DRY,5.03,11.63,14.7,777.00,1.4
2020-06-25,22:05:00,DRY,4.65,11.55,15.0,777.00,1.1
2020-06-25,22:10:00,DRY,5.33,11.33,16.0,777.00,1.3
2020-06-25,22:15:00,DRY,4.90,11.15,16.5,777.00,1.2
2020-06-25,22:20:00,DRY,4.93,11.17,16.3,777.00,1.0
2020-06-25,22:25:00,DRY,5.45,11.10,16.0,777.00,1.4
2020-06-25,22:30:00,DRY,4.93,11.33,15.3,777.00,1.2
2020-06-25,22:35:00,DRY,4.65,11.35,15.0,777.00,1.2
2020-06-25,22:40:00,DRY,5.27,11.33,15.0,777.00,1.2
2020-06-25,22:45:00,DRY,4.40,11.45,14.5,777.00,1.0
2020-06-25,22:50:00,DRY,4.53,11.47,14.7,777.00,1.0
2020-06-25,22:55:00,DRY,4.30,11.45,14.5,777.00,1.4
2020-06-25,23:00:00,DRY,4.40,11.60,13.7,777.00,1.5
2020-06-25,23:05:00,DRY,4.15,11.70,14.0,777.00,1.2
2020-06-25,23:10:00,DRY,4.00,11.73,13.7,777.00,1.2
2020-06-25,23:15:00,DRY,4.85,11.85,13.0,777.00,1.2
2020-06-25,23:20:00,DRY,5.13,12.03,12.7,777.00,1.2
2020-06-25,23:25:00,DRY,4.70,12.40,11.0,777.00,1.1
2020-06-25,23:30:00,DRY,4.53,12.67,10.3,777.00,1.2
2020-06-25,23:35:00,DRY,4.55,12.50,11.0,777.00,1.1
2020-06-25,23:40:00,DRY,4.77,12.80,9.7,777.00,1.2
2020-06-25,23:45:00,DRY,4.25,12.80,10.0,777.00,1.2
2020-06-25,23:50:00,DRY,4.23,12.73,9.7,777.00,1.2
2020-06-25,23:55:00,DRY,3.85,12.55,8.5,777.00,1.2
2020-06-26,00:00:00,DRY,4.33,12.97,9.3,777.00,1.2
2020-06-26,00:05:00,DRY,3.65,12.95,9.0,777.00,0.9
2020-06-26,00:10:00,DRY,3.13,13.07,8.7,777.00,1.2
2020-06-26,00:15:00,DRY,2.70,13.30,8.5,777.00,0.7
2020-06-26,00:20:00,DRY,3.43,13.17,8.3,777.00,1.1
2020-06-26,00:25:00,DRY,3.20,12.60,10.0,777.00,0.9
2020-06-26,00:30:00,DRY,3.53,12.50,10.0,777.00,0.9
2020-06-26,00:35:00,DRY,3.80,12.40,10.0,777.00,1.6
2020-06-26,00:40:00,DRY,4.13,12.43,10.0,777.00,1.7
2020-06-26,00:45:00,DRY,3.20,12.45,9.5,777.00,0.9
2020-06-26,00:50:00,DRY,3.80,12.63,9.3,777.00,1.4
2020-06-26,00:55:00,DRY,4.05,12.60,9.5,777.00,1.1
2020-06-26,01:00:00,DRY,4.03,12.60,9.0,777.00,1.5
2020-06-26,01:05:00,DRY,3.80,12.65,9.0,777.00,1.4
2020-06-26,01:10:00,DRY,3.50,12.47,10.0,777.00,0.9
2020-06-26,01:15:00,DRY,2.65,12.40,10.0,777.00,1.6
2020-06-26,01:20:00,DRY,3.33,12.50,10.0,777.00,1.5
2020-06-26,01:25:00,DRY,3.25,12.30,10.0,777.00,0.9
2020-06-26,01:30:00,DRY,2.97,12.27,10.3,777.00,0.9
2020-06-26,01:35:00,DRY,3.00,12.65,9.5,777.00,0.6
2020-06-26,01:40:00,DRY,2.73,12.83,9.3,777.00,0.9
2020-06-26,01:45:00,DRY,2.80,12.35,10.0,777.00,1.2
2020-06-26,01:50:00,DRY,2.57,12.27,10.3,777.00,1.7
2020-06-26,01:55:00,DRY,2.45,12.10,10.5,777.00,0.4
2020-06-26,02:00:00,DRY,2.90,12.23,10.3,777.00,1.1
2020-06-26,02:05:00,DRY,2.95,12.45,9.5,777.00,1.6
2020-06-26,02:10:00,DRY,2.63,12.70,9.3,776.67,0.9
2020-06-26,02:15:00,DRY,3.60,13.20,8.5,777.00,1.1
2020-06-26,02:20:00,DRY,3.20,12.93,9.0,776.67,1.3
2020-06-26,02:25:00,DRY,2.65,12.25,10.5,776.50,1.6
2020-06-26,02:30:00,DRY,2.80,11.63,12.0,776.33,1.5
2020-06-26,02:35:00,DRY,3.45,12.60,9.5,777.00,1.7
2020-06-26,02:40:00,DRY,2.90,13.07,8.3,776.33,0.9
2020-06-26,02:45:00,DRY,2.35,13.35,8.5,776.50,1.8
2020-06-26,02:50:00,DRY,2.13,13.70,7.3,776.00,1.4
2020-06-26,02:55:00,DRY,1.75,13.50,8.0,776.00,1.6
2020-06-26,03:00:00,DRY,2.67,13.60,8.7,776.00,1.6
2020-06-26,03:05:00,DRY,2.55,13.65,9.0,776.00,0.7
2020-06-26,03:10:00,DRY,2.20,13.90,8.7,776.00,1.6
2020-06-26,03:15:00,DRY,2.55,13.55,9.0,776.00,1.7
2020-06-26,03:20:00,DRY,2.37,13.73,8.3,776.00,0.7
2020-06-26,03:25:00,DRY,2.85,13.70,9.0,776.00,0.8
2020-06-26,03:30:00,DRY,2.83,13.63,9.0,776.00,0.8
2020-06-26,03:35:00,DRY,3.15,13.50,9.0,776.00,1.5
2020-06-26,03:40:00,DRY,2.77,13.40,8.7,776.00,0.8
2020-06-26,03:45:00,DRY,2.50,13.55,8.0,776.00,1.1
2020-06-26,03:50:00,DRY,2.53,13.47,8.3,776.00,1.2
2020-06-26,03:55:00,DRY,2.55,13.40,9.0,776.00,1.1
2020-06-26,04:00:00,DRY,2.07,13.50,8.7,776.00,0.5
2020-06-26,04:05:00,DRY,3.50,13.60,9.0,776.00,1.1
2020-06-26,04:10:00,DRY,3.03,13.70,8.0,776.00,1.0
2020-06-26,04:15:00,DRY,2.80,13.70,8.5,776.00,1.0
2020-06-26,04:20:00,DRY,2.53,13.60,9.0,776.00,2.2
2020-06-26,04:25:00,DRY,2.15,13.60,8.5,776.00,1.6
2020-06-26,04:30:00,DRY,2.50,13.43,8.0,776.00,0.9
2020-06-26,04:35:00,DRY,3.10,13.60,8.0,776.00,1.2
2020-06-26,04:40:00,DRY,2.73,13.63,8.3,776.00,1.5
2020-06-26,04:45:00,DRY,3.00,13.65,8.0,776.00,1.2
2020-06-26,04:50:00,DRY,2.93,13.57,8.0,776.00,0.8
2020-06-26,04:55:00,DRY,2.85,13.75,8.0,776.00,0.8
2020-06-26,05:00:00,DRY,2.63,13.13,9.0,776.00,1.1
2020-06-26,05:05:00,DRY,3.30,12.95,9.0,776.00,1.1
2020-06-26,05:10:00,DRY,3.60,12.77,9.7,776.00,0.9
2020-06-26,05:15:00,DRY,3.40,13.00,9.0,776.00,0.6
2020-06-26,05:20:00,DRY,3.33,13.23,9.0,776.00,1.3
2020-06-26,05:25:00,DRY,3.35,13.35,9.0,776.00,1.1
2020-06-26,05:30:00,DRY,2.37,13.50,9.0,776.00,0.4
2020-06-26,05:35:00,DRY,2.80,13.50,9.0,776.00,1.1
2020-06-26,05:40:00,DRY,2.83,13.53,9.0,776.00,1.3
2020-06-26,05:45:00,DRY,3.10,13.55,9.0,776.00,0.8
2020-06-26,05:50:00,DRY,2.80,13.53,9.0,776.00,1.5
2020-06-26,05:55:00,DRY,2.95,13.50,9.0,776.00,1.9
2020-06-26,06:00:00,DRY,3.33,13.53,9.0,776.00,2.2
2020-06-26,06:05:00,DRY,3.10,13.60,9.0,776.00,3.2
2020-06-26,06:10:00,DRY,3.33,13.63,9.0,776.00,4.6
2020-06-26,06:15:00,DRY,3.80,13.80,9.0,776.00,7.7
2020-06-26,06:20:00,DRY,2.97,13.97,8.7,776.00,12.1
2020-06-26,06:25:00,DRY,2.80,14.00,9.0,776.00,32.9
2020-06-26,06:30:00,DRY,2.90,14.23,9.0,776.00,50.2
2020-06-26,06:35:00,DRY,3.00,14.15,9.0,776.00,45.4
2020-06-26,06:40:00,DRY,2.53,13.80,10.0,776.00,50.7
2020-06-26,06:45:00,DRY,1.85,13.75,10.0,776.50,116.2
2020-06-26,06:50:00,DRY,2.03,14.43,9.3,776.00,138.2
2020-06-26,06:55:00,DRY,1.25,14.95,9.5,776.00,156.6
2020-06-26,07:00:00,DRY,1.47,15.37,9.0,776.00,176.2
2020-06-26,07:05:00,DRY,1.40,15.40,9.5,776.00,197.7
2020-06-26,07:10:00,DRY,1.30,15.17,9.7,776.00,218.2
2020-06-26,07:15:00,DRY,1.00,15.15,9.5,776.00,240.5
2020-06-26,07:20:00,DRY,1.20,15.40,10.7,776.00,261.8
2020-06-26,07:25:00,DRY,2.05,15.35,9.5,776.00,283.0
2020-06-26,07:30:00,DRY,1.95,15.35,9.0,776.50,299.9
2020-06-26,07:35:00,DRY,2.10,15.30,11.5,776.00,326.7
2020-06-26,07:40:00,DRY,1.97,15.23,12.0,776.00,349.0
2020-06-26,07:45:00,DRY,1.70,15.30,11.5,776.50,371.2
2020-06-26,07:50:00,DRY,2.00,15.27,12.0,776.00,392.5
2020-06-26,07:55:00,DRY,2.30,15.50,12.0,776.00,415.0
2020-06-26,08:00:00,DRY,2.10,15.60,10.0,776.33,437.5
2020-06-26,08:05:00,DRY,2.30,15.70,10.5,776.00,457.9
2020-06-26,08:10:00,DRY,2.20,15.80,11.0,776.67,479.9
2020-06-26,08:15:00,DRY,1.70,15.85,10.5,776.50,502.6
2020-06-26,08:20:00,DRY,2.13,16.03,10.7,776.67,522.6
2020-06-26,08:25:00,DRY,2.75,16.05,10.5,776.50,544.0
2020-06-26,08:30:00,DRY,2.17,16.00,10.0,776.67,565.4
2020-06-26,08:35:00,DRY,2.70,16.15,11.0,776.00,585.7
2020-06-26,08:40:00,DRY,2.93,16.33,11.7,776.00,607.7
2020-06-26,08:45:00,DRY,2.40,16.40,11.5,776.00,628.3
2020-06-26,08:50:00,DRY,2.60,16.47,12.0,776.00,647.7
2020-06-26,08:55:00,DRY,1.75,16.10,10.0,776.00,667.7
2020-06-26,09:00:00,DRY,1.93,16.50,10.7,776.00,686.9
2020-06-26,09:05:00,DRY,2.55,16.60,12.0,776.00,706.5
2020-06-26,09:10:00,DRY,2.23,16.80,13.3,776.00,727.0
2020-06-26,09:15:00,DRY,2.50,16.75,14.5,776.00,746.0
2020-06-26,09:20:00,DRY,2.33,16.70,13.3,776.00,765.6
2020-06-26,09:25:00,DRY,1.95,16.55,15.5,776.00,783.2
2020-06-26,09:30:00,DRY,1.97,16.83,14.3,776.00,801.3
2020-06-26,09:35:00,DRY,2.35,16.80,15.0,776.00,819.8
2020-06-26,09:40:00,DRY,1.90,16.83,16.0,776.00,835.5
2020-06-26,09:45:00,DRY,2.85,17.05,15.5,776.00,854.1
2020-06-26,09:50:00,DRY,2.63,16.97,11.0,776.00,871.1
2020-06-26,09:55:00,DRY,1.55,16.70,13.0,776.00,888.9
2020-06-26,10:00:00,DRY,2.30,16.90,12.7,776.33,903.0
2020-06-26,10:05:00,DRY,2.35,17.15,15.5,776.00,918.2
2020-06-26,10:10:00,DRY,2.57,16.93,14.0,776.67,933.8
2020-06-26,10:15:00,DRY,1.85,17.30,11.0,777.00,947.2
2020-06-26,10:20:00,DRY,2.90,17.43,13.0,777.00,961.8
2020-06-26,10:25:00,DRY,2.50,17.05,11.5,777.00,977.2
2020-06-26,10:30:00,DRY,3.20,16.87,10.0,777.00,991.2
2020-06-26,10:35:00,DRY,2.20,17.10,11.0,777.00,1005.0
2020-06-26,10:40:00,DRY,1.57,16.73,10.7,777.00,1019.0
2020-06-26,10:45:00,DRY,2.05,17.20,10.5,777.00,1029.8
2020-06-26,10:50:00,DRY,2.73,17.07,11.3,777.00,1044.3
2020-06-26,10:55:00,DRY,3.95,17.75,15.5,777.00,1053.9
2020-06-26,11:00:00,DRY,1.67,17.20,15.0,777.00,1066.9
2020-06-26,11:05:00,DRY,1.40,17.20,17.0,777.00,1077.8
2020-06-26,11:10:00,DRY,1.53,17.67,20.7,777.00,1089.3
2020-06-26,11:15:00,DRY,2.60,18.35,22.0,777.00,1097.9
2020-06-26,11:20:00,DRY,2.00,18.00,23.7,777.00,1108.1
2020-06-26,11:25:00,DRY,1.45,17.25,23.0,777.00,1115.5
2020-06-26,11:30:00,DRY,2.93,17.63,24.7,777.00,1124.7
2020-06-26,11:35:00,DRY,3.25,17.70,27.5,777.00,1135.5
2020-06-26,11:40:00,DRY,2.87,17.13,24.7,777.00,1140.5
2020-06-26,11:45:00,DRY,2.25,17.25,25.5,777.00,1149.8
2020-06-26,11:50:00,DRY,2.47,17.40,25.7,777.00,1157.8
2020-06-26,11:55:00,DRY,2.35,17.70,25.0,777.00,1164.5
2020-06-26,12:00:00,DRY,2.10,17.93,24.7,777.00,1170.8
2020-06-26,12:05:00,DRY,1.55,17.75,25.0,777.00,1172.2
2020-06-26,12:10:00,DRY,1.83,17.67,24.7,777.00,1180.0
2020-06-26,12:15:00,DRY,2.55,18.05,26.5,777.00,1182.5
2020-06-26,12:20:00,DRY,1.37,18.00,26.0,777.00,1188.6
2020-06-26,12:25:00,DRY,2.20,18.65,28.5,777.00,1191.1
2020-06-26,12:30:00,DRY,2.23,18.43,28.0,777.00,1194.2
2020-06-26,12:35:00,DRY,2.15,17.90,30.5,777.00,1194.4
2020-06-26,12:40:00,DRY,2.00,18.10,29.0,777.00,1198.1
2020-06-26,12:45:00,DRY,1.55,18.50,29.5,777.00,1200.1
2020-06-26,12:50:00,DRY,1.80,19.37,28.7,777.00,1199.7
2020-06-26,12:55:00,DRY,2.60,18.90,28.5,777.00,1201.7
2020-06-26,13:00:00,DRY,1.53,19.13,30.3,777.00,1203.5
2020-06-26,13:05:00,DRY,2.35,19.10,34.5,777.00,1205.3
2020-06-26,13:10:00,DRY,2.40,18.33,39.0,777.00,1202.8
2020-06-26,13:15:00,DRY,3.10,18.75,36.5,777.00,1206.6
2020-06-26,13:20:00,DRY,2.53,18.53,37.0,777.00,1204.3
2020-06-26,13:25:00,DRY,2.25,18.30,34.5,777.00,1207.5
2020-06-26,13:30:00,DRY,1.70,18.30,34.0,777.00,1207.6
2020-06-26,13:35:00,DRY,2.50,18.70,33.0,777.00,1202.8
2020-06-26,13:40:00,DRY,2.47,19.30,27.3,777.00,1205.0
2020-06-26,13:45:00,DRY,2.35,18.95,32.5,777.00,1201.2
2020-06-26,13:50:00,DRY,2.17,18.53,33.7,777.00,1199.0
2020-06-26,13:55:00,DRY,2.05,18.40,31.0,777.00,1195.3
2020-06-26,14:00:00,DRY,2.57,19.10,32.0,777.00,1193.2
2020-06-26,14:05:00,DRY,1.20,18.00,37.0,777.00,1184.2
2020-06-26,14:10:00,DRY,2.30,19.00,35.3,777.00,1180.7
2020-06-26,14:15:00,DRY,2.15,18.85,33.0,777.00,1177.5
2020-06-26,14:20:00,DRY,2.67,18.57,32.3,777.00,1171.0
2020-06-26,14:25:00,DRY,2.85,18.60,32.5,777.00,1169.8
2020-06-26,14:30:00,DRY,1.83,18.87,31.7,777.00,1163.7
2020-06-26,14:35:00,DRY,2.50,19.55,32.5,777.00,1159.1
2020-06-26,14:40:00,DRY,2.23,18.13,45.0,777.00,1145.7
2020-06-26,14:45:00,DRY,1.65,18.05,47.0,777.00,1144.1
2020-06-26,14:50:00,DRY,1.63,17.60,46.0,777.00,1132.6
2020-06-26,14:55:00,DRY,1.90,18.35,46.0,777.00,1125.5
2020-06-26,15:00:00,DRY,2.17,17.40,47.0,777.00,1115.3
2020-06-26,15:05:00,DRY,1.60,18.15,44.5,777.00,1106.0
2020-06-26,15:10:00,DRY,2.57,18.50,39.7,777.00,1093.7
2020-06-26,15:15:00,DRY,1.05,18.60,36.5,777.00,1082.9
2020-06-26,15:20:00,DRY,2.23,18.63,37.0,777.00,1073.3
2020-06-26,15:25:00,DRY,1.55,17.90,38.0,777.00,1059.6
2020-06-26,15:30:00,DRY,1.53,18.47,37.7,777.00,1048.5
2020-06-26,15:35:00,DRY,1.65,18.25,40.5,777.00,1035.0
2020-06-26,15:40:00,DRY,1.63,18.40,41.3,777.00,1023.5
2020-06-26,15:45:00,DRY,2.15,18.30,40.5,777.00,1009.4
2020-06-26,15:50:00,DRY,1.87,18.07,41.3,776.67,996.3
2020-06-26,15:55:00,DRY,1.60,18.60,40.0,777.00,981.2
2020-06-26,16:00:00,DRY,1.60,18.53,39.3,777.00,966.3
2020-06-26,16:05:00,DRY,1.20,17.35,41.0,776.00,952.5
2020-06-26,16:10:00,DRY,2.40,17.90,42.3,776.33,938.4
2020-06-26,16:15:00,DRY,1.65,17.30,45.0,776.50,922.0
2020-06-26,16:20:00,DRY,2.73,17.53,44.3,777.00,907.5
2020-06-26,16:25:00,DRY,2.40,17.70,41.5,777.00,888.1
2020-06-26,16:30:00,DRY,3.10,17.47,41.0,777.00,872.8
2020-06-26,16:35:00,DRY,2.60,18.00,38.0,777.00,855.4
2020-06-26,16:40:00,DRY,1.57,16.90,38.7,777.00,838.9
2020-06-26,16:45:00,DRY,1.75,17.35,37.5,776.50,823.9
2020-06-26,16:50:00,DRY,1.73,17.43,37.7,776.00,804.2
2020-06-26,16:55:00,DRY,1.35,18.05,36.0,776.50,788.5
2020-06-26,17:00:00,DRY,1.87,18.13,34.0,776.00,767.1
2020-06-26,17:05:00,DRY,1.35,17.70,32.5,776.00,749.2
2020-06-26,17:10:00,DRY,1.43,18.27,31.3,776.00,730.7